Temp
63 62 62 62 63 63 63 63 63 63 63 63 63 63 63 63 63 64 71 82 80 81 84 81 80 79 76 72 76 76 58 55 61 63 65 74 73 77 80 76 78 78 74 75 75
62 62 62 62 62 63 63 63 63 63 63 63 63 63 63 63 61 68 81 82 81 81 81 78 77 78 71 70 72 68 57 62 71 70 68 73 74 73 74 72 72 72 74 76 75
62 62 62 62 62 62 62 62 62 62 62 62 62 63 63 62 64 77 83 82 81 82 82 80 78 75 68 69 69 71 63 70 73 74 75 72 72 76 70 66 70 70 70 73 73
62 62 61 62 62 62 62 62 62 61 62 61 62 63 63 59 62 78 82 81 82 83 82 78 76 70 65 66 74 68 73 74 74 76 73 71 73 71 71 71 76 76 74 73 71
61 61 61 61 61 61 61 61 61 61 61 61 63 63 61 63 73 81 82 81 80 82 80 75 72 68 65 68 73 68 72 75 75 75 74 74 70 70 70 75 77 77 75 73 72
61 61 60 60 61 61 61 60 60 60 61 62 63 64 61 62 81 82 80 79 80 79 76 77 75 75 68 67 66 73 72 72 74 73 73 70 69 71 71 75 75 75 73 73 74
60 60 60 60 60 60 60 60 60 60 61 62 63 65 63 71 80 79 78 74 79 79 75 77 78 72 70 69 76 72 68 69 70 71 71 72 66 65 71 73 71 73 73 74 74
60 59 59 59 59 59 59 58 59 61 62 63 64 59 62 78 76 80 77 77 78 76 77 78 79 72 68 72 73 67 65 57 67 69 72 71 58 69 70 70 68 71 73 74 74
59 59 59 59 58 58 57 57 61 63 64 65 56 56 63 78 73 78 79 79 80 75 74 90 76 67 69 62 58 60 54 58 63 70 70 67 60 69 69 69 67 69 71 74 74
59 58 58 58 58 57 56 58 63 63 64 67 70 58 67 70 73 78 76 82 77 75 76 72 65 60 58 58 51 55 55 61 60 66 67 63 64 68 68 68 68 68 69 70 73
58 58 58 58 57 56 53 56 60 58 56 64 64 66 73 77 77 76 78 79 73 72 61 64 60 55 61 62 63 60 57 59 67 71 66 64 65 70 69 67 66 66 66 68 71
58 58 58 57 57 56 52 58 64 66 59 67 68 69 73 73 72 74 80 73 67 62 62 61 56 66 66 66 63 60 58 60 66 70 66 62 63 68 68 66 69 69 66 69 69
58 58 57 56 56 51 53 63 67 66 56 66 66 67 70 75 70 72 77 70 65 61 61 58 65 71 67 63 62 58 56 60 61 67 66 63 58 62 65 66 68 70 69 69 71
58 57 56 55 53 55 60 64 65 67 53 62 61 71 71 73 68 80 77 75 64 64 62 62 68 69 63 63 64 53 67 66 65 57 52 61 49 56 59 61 63 67 67 69 70
57 57 56 55 52 59 66 63 63 67 47 69 64 77 69 69 69 71 77 74 67 66 64 63 64 64 61 66 67 64 70 67 64 56 52 55 51 56 56 61 62 64 67 70 73
56 56 55 51 49 59 62 61 67 55 48 65 69 66 66 65 70 73 72 75 72 65 62 65 68 69 68 71 69 71 65 60 54 51 47 51 52 57 57 63 64 65 68 70 71
55 53 53 59 64 61 62 66 54 49 65 65 62 64 61 59 65 68 68 64 61 52 51 61 65 68 72 62 65 62 53 46 46 44 46 45 49 56 66 68 68 68 67 71 73
52 52 52 57 56 59 65 61 44 60 59 68 66 64 62 63 62 66 62 58 61 57 51 52 55 61 66 65 60 58 55 47 40 41 46 48 49 61 69 70 69 70 69 71 73
52 51 53 59 58 58 64 49 51 55 64 66 64 60 58 64 64 62 57 56 60 61 56 49 54 67 71 70 70 57 52 55 46 40 45 49 56 67 68 71 69 68 67 69 72
56 60 64 65 62 65 58 49 54 63 66 63 55 60 53 59 60 58 56 62 62 65 61 55 51 64 71 68 65 62 63 52 46 41 39 46 49 54 64 68 68 67 66 67 70
59 63 68 63 65 61 51 50 60 68 67 61 58 57 55 55 55 54 54 62 65 65 61 53 52 58 60 58 59 57 53 50 49 46 43 42 49 59 63 66 67 69 68 67 69
58 58 68 67 59 47 52 55 61 65 66 65 64 61 57 57 54 54 54 58 67 63 56 56 50 48 58 63 63 59 55 51 47 45 42 44 50 65 64 66 66 68 67 68 70
55 55 66 68 52 51 55 61 63 64 62 63 60 61 59 54 50 55 58 65 67 63 55 57 49 44 52 55 60 57 58 49 49 45 43 45 51 66 66 67 68 67 68 66 69
55 56 59 57 51 51 50 54 58 68 63 62 58 59 57 53 53 52 55 64 66 63 66 60 46 49 45 49 52 53 57 60 53 48 47 51 55 62 66 65 67 68 68 68 67
51 47 48 49 51 49 48 53 56 56 61 61 57 58 52 45 49 49 54 57 62 64 58 55 45 46 51 54 55 55 58 59 53 54 50 55 54 61 64 64 66 67 67 69 68
48 47 47 46 47 49 48 48 54 57 56 54 53 57 54 48 48 48 49 47 53 54 51 50 45 43 47 55 55 54 58 60 60 60 56 57 56 62 63 64 64 65 67 67 67
48 49 49 46 46 47 47 51 56 56 57 60 57 55 52 53 56 56 55 56 54 51 49 47 45 41 38 47 50 45 53 59 61 60 60 54 59 61 60 62 63 63 64 67 68
MSLP
1015.96 1015.72 1015.46 1015.28 1015.02 1014.74 1014.47 1014.28 1014.04 1013.76 1013.47 1013.18 1012.93 1012.69 1012.44 1012.13 1011.49 1011.30 1010.14 1007.99 1008.10 1008.10 1008.07 1008.32 1008.36 1008.39 1008.67 1008.88 1008.98 1009.37 1010.33 1010.62 1009.98 1009.66 1009.05 1008.75 1008.77 1008.85 1008.95 1009.31 1009.74 1010.12 1010.41 1010.71 1011.81
1015.96 1015.71 1015.41 1015.13 1014.93 1014.65 1014.40 1014.18 1013.93 1013.65 1013.38 1013.13 1012.90 1012.64 1012.36 1012.10 1011.65 1010.34 1007.55 1007.41 1007.90 1008.09 1008.24 1008.44 1008.49 1008.53 1008.83 1008.99 1009.14 1009.47 1010.09 1009.68 1009.06 1008.81 1008.75 1008.66 1008.76 1008.97 1009.28 1009.70 1010.07 1010.47 1010.68 1011.05 1011.95
1015.94 1015.68 1015.40 1015.06 1014.77 1014.56 1014.29 1014.05 1013.78 1013.47 1013.21 1012.99 1012.76 1012.49 1012.21 1012.07 1011.22 1008.34 1006.91 1007.19 1007.74 1008.05 1008.22 1008.33 1008.47 1008.63 1008.90 1009.12 1009.06 1009.15 1009.33 1009.20 1008.87 1008.58 1008.57 1008.66 1008.92 1008.97 1009.27 1009.82 1009.84 1010.18 1010.91 1011.50 1012.23
1015.90 1015.64 1015.34 1015.01 1014.65 1014.36 1014.15 1013.91 1013.65 1013.36 1013.06 1012.88 1012.60 1012.38 1012.08 1011.86 1010.10 1007.52 1007.17 1007.11 1007.54 1008.01 1008.24 1008.38 1008.56 1008.76 1009.12 1009.40 1008.92 1008.98 1008.79 1008.84 1008.65 1008.50 1008.61 1008.89 1008.97 1009.13 1009.25 1009.23 1009.17 1009.84 1010.36 1011.27 1012.07
1015.82 1015.54 1015.26 1014.94 1014.60 1014.27 1013.99 1013.77 1013.55 1013.25 1012.98 1012.75 1012.43 1012.20 1011.87 1011.13 1008.95 1007.43 1007.37 1007.33 1007.79 1008.17 1008.43 1008.53 1008.72 1008.92 1009.30 1009.26 1008.93 1008.81 1008.74 1008.78 1008.70 1008.60 1008.69 1008.91 1009.11 1009.23 1009.15 1009.16 1009.51 1010.04 1010.83 1011.30 1011.89
1015.69 1015.40 1015.11 1014.77 1014.43 1014.11 1013.88 1013.64 1013.35 1013.09 1012.87 1012.60 1012.37 1012.20 1011.76 1010.27 1007.68 1007.50 1007.62 1007.92 1007.97 1008.28 1008.53 1008.51 1008.62 1008.66 1009.09 1009.22 1009.21 1009.00 1009.01 1008.80 1008.57 1008.63 1008.81 1009.05 1009.32 1009.38 1008.69 1008.87 1009.55 1010.15 1010.79 1011.27 1011.67
1015.57 1015.30 1015.00 1014.61 1014.24 1013.97 1013.70 1013.40 1013.13 1012.95 1012.75 1012.56 1012.40 1012.23 1011.42 1008.76 1007.63 1007.66 1007.73 1007.69 1007.87 1008.09 1008.39 1008.56 1008.50 1008.64 1008.98 1009.13 1009.17 1009.22 1009.29 1009.00 1008.78 1008.87 1009.02 1009.17 1009.43 1009.06 1008.85 1009.11 1009.66 1010.25 1010.77 1011.04 1011.24
1015.53 1015.19 1014.88 1014.53 1014.16 1013.81 1013.49 1013.20 1012.86 1012.62 1012.54 1012.48 1012.42 1012.17 1010.61 1007.95 1007.76 1007.63 1007.55 1007.64 1007.83 1007.94 1008.27 1008.38 1008.44 1008.76 1009.11 1009.28 1009.40 1009.76 1009.89 1009.84 1009.04 1009.06 1009.02 1009.38 1009.06 1008.51 1008.81 1009.35 1009.96 1010.26 1010.59 1010.86 1010.93
1015.40 1015.05 1014.71 1014.33 1013.95 1013.65 1013.34 1012.93 1012.46 1012.32 1012.35 1012.44 1012.46 1011.93 1009.86 1007.82 1007.78 1007.14 1007.28 1007.54 1007.80 1008.08 1008.20 1008.24 1008.61 1009.36 1009.67 1010.15 1010.56 1010.74 1010.67 1010.30 1009.45 1009.00 1009.14 1009.51 1009.00 1008.71 1008.75 1009.11 1009.77 1010.08 1010.29 1010.45 1010.64
1015.15 1014.87 1014.60 1014.27 1013.84 1013.50 1013.10 1012.70 1012.41 1012.39 1012.54 1012.46 1012.04 1011.82 1009.12 1007.79 1007.18 1007.04 1007.19 1007.35 1007.76 1008.00 1008.40 1008.80 1009.73 1010.18 1010.79 1011.10 1011.47 1011.31 1011.07 1010.47 1009.83 1009.21 1009.32 1009.47 1008.49 1008.67 1008.84 1008.83 1009.11 1009.62 1010.00 1010.13 1010.15
1014.87 1014.55 1014.30 1014.04 1013.80 1013.57 1013.07 1012.71 1012.93 1012.56 1012.14 1010.76 1010.21 1009.55 1008.34 1007.34 1006.94 1006.99 1007.15 1007.53 1007.99 1008.54 1009.25 1009.74 1010.47 1010.88 1010.85 1011.15 1011.04 1011.10 1010.99 1010.61 1008.80 1008.58 1008.98 1008.64 1008.62 1007.61 1008.67 1008.97 1008.97 1009.29 1009.51 1009.73 1009.62
1014.54 1014.21 1013.96 1013.77 1013.62 1013.55 1013.57 1012.63 1011.04 1010.74 1010.65 1009.46 1009.38 1009.00 1008.25 1007.63 1007.61 1007.09 1006.99 1007.82 1008.41 1009.17 1009.59 1010.30 1010.39 1009.97 1010.30 1010.44 1010.65 1010.75 1010.65 1009.80 1008.64 1008.15 1008.68 1008.41 1008.23 1007.72 1007.92 1007.85 1007.96 1008.28 1008.84 1008.90 1009.33
1014.15 1013.80 1013.62 1013.48 1013.30 1013.40 1012.82 1011.25 1010.28 1010.26 1010.44 1008.90 1008.60 1008.27 1007.78 1007.70 1007.58 1007.01 1007.07 1007.72 1008.60 1009.47 1009.89 1010.35 1009.57 1009.31 1009.75 1009.90 1010.16 1010.18 1010.14 1009.56 1009.49 1008.55 1008.47 1008.63 1008.37 1007.54 1007.16 1007.27 1007.31 1007.36 1007.71 1008.09 1008.46
1013.71 1013.43 1013.25 1013.12 1013.53 1012.62 1011.70 1010.19 1010.10 1010.29 1010.14 1008.56 1007.98 1007.11 1007.22 1007.10 1007.01 1006.46 1006.68 1007.41 1008.52 1009.13 1010.08 1009.98 1008.96 1009.00 1009.11 1009.39 1009.57 1009.43 1008.86 1009.15 1009.10 1009.35 1009.26 1009.04 1008.89 1007.73 1007.23 1007.11 1007.12 1007.04 1007.32 1007.57 1007.98
1013.40 1013.08 1012.97 1013.03 1012.63 1012.02 1010.66 1010.13 1010.03 1009.98 1009.45 1007.48 1007.07 1006.39 1006.80 1006.99 1006.68 1006.53 1006.57 1006.98 1008.01 1008.86 1009.71 1009.02 1008.58 1008.62 1008.65 1008.35 1008.69 1008.76 1008.37 1009.02 1009.16 1009.56 1009.81 1009.77 1009.80 1007.41 1007.30 1006.70 1006.23 1006.13 1006.45 1006.87 1007.06
1012.97 1012.71 1012.71 1012.93 1012.76 1010.61 1010.18 1010.07 1010.12 1010.10 1008.42 1006.96 1006.51 1006.59 1007.00 1006.78 1006.64 1006.57 1006.77 1007.05 1007.76 1008.78 1009.15 1008.83 1008.28 1008.06 1007.72 1007.53 1007.96 1008.18 1008.81 1009.39 1010.09 1010.39 1010.67 1010.02 1009.97 1007.35 1006.99 1005.85 1005.37 1005.23 1005.67 1006.14 1006.41
1012.26 1012.09 1012.41 1011.83 1011.10 1010.14 1010.05 1010.24 1010.51 1009.63 1008.10 1007.27 1006.81 1006.73 1006.84 1006.92 1006.79 1006.72 1007.16 1007.72 1008.41 1009.27 1009.70 1009.09 1008.25 1007.45 1007.25 1007.71 1007.78 1008.48 1009.76 1010.48 1011.29 1011.73 1011.35 1010.07 1009.78 1007.41 1005.40 1004.92 1004.57 1004.60 1004.84 1005.27 1005.74
1011.56 1011.30 1011.55 1011.06 1010.34 1010.21 1010.07 1010.53 1010.39 1009.37 1008.37 1007.32 1007.05 1006.94 1007.15 1007.10 1007.36 1007.50 1007.99 1008.81 1008.80 1009.18 1009.93 1009.57 1008.36 1007.25 1007.07 1007.26 1007.70 1008.35 1009.44 1010.77 1011.67 1012.48 1011.64 1010.29 1008.92 1006.06 1004.59 1003.96 1003.84 1003.93 1004.32 1005.07 1005.47
1011.33 1011.42 1011.39 1010.10 1010.09 1010.57 1010.72 1011.26 1010.60 1009.66 1008.67 1007.91 1007.50 1007.67 1007.94 1007.76 1007.89 1008.34 1009.23 1009.79 1009.39 1009.26 1009.98 1009.75 1008.22 1007.08 1006.50 1006.55 1007.09 1007.95 1009.19 1009.73 1011.20 1012.37 1011.96 1010.30 1008.35 1005.74 1004.16 1003.61 1003.76 1004.35 1004.41 1004.48 1004.76
1011.24 1011.09 1010.77 1009.87 1009.96 1010.12 1011.12 1011.59 1010.59 1009.53 1008.64 1008.11 1008.16 1008.19 1008.74 1008.70 1008.67 1009.04 1009.81 1010.19 1009.95 1009.47 1009.48 1009.62 1009.13 1007.41 1006.23 1006.29 1006.73 1007.28 1008.46 1009.94 1011.40 1012.40 1012.16 1010.68 1008.99 1006.75 1004.88 1004.12 1004.07 1004.24 1004.56 1004.51 1004.38
1011.12 1011.14 1010.64 1010.13 1010.24 1010.92 1011.91 1011.61 1010.39 1009.13 1008.78 1008.60 1008.49 1008.96 1009.43 1009.59 1009.63 1009.95 1010.51 1010.37 1010.15 1009.74 1009.67 1009.93 1010.02 1008.64 1007.53 1007.09 1007.03 1007.83 1008.59 1010.14 1011.29 1011.85 1012.01 1011.04 1009.10 1006.40 1005.50 1004.76 1004.30 1004.00 1004.20 1004.54 1004.51
1011.55 1011.90 1010.67 1010.31 1011.22 1012.41 1012.23 1011.42 1010.47 1009.63 1009.21 1008.90 1008.98 1009.47 1009.86 1010.19 1010.40 1010.65 1010.80 1010.73 1010.39 1010.31 1010.52 1010.56 1010.83 1010.29 1008.75 1007.65 1007.64 1007.83 1008.70 1009.82 1011.27 1012.06 1011.92 1010.78 1007.89 1005.97 1005.46 1004.78 1004.24 1003.59 1003.86 1003.81 1004.27
1012.81 1012.50 1010.91 1010.67 1012.27 1013.06 1012.28 1011.52 1010.80 1010.14 1010.12 1009.92 1010.31 1010.45 1010.64 1011.09 1011.48 1011.28 1011.15 1011.02 1010.74 1010.78 1011.12 1011.08 1011.55 1011.39 1009.96 1009.05 1008.49 1008.98 1009.33 1009.86 1010.38 1011.03 1011.28 1010.53 1007.83 1005.80 1005.12 1004.45 1003.76 1003.75 1003.62 1004.14 1004.12
1013.62 1013.72 1012.82 1012.71 1013.46 1013.47 1013.25 1012.42 1011.45 1010.74 1010.92 1010.92 1011.17 1011.12 1011.44 1011.85 1011.94 1011.93 1011.68 1011.31 1011.25 1011.27 1011.51 1011.68 1012.54 1012.44 1011.74 1010.86 1010.60 1010.15 1009.76 1009.68 1009.85 1010.68 1010.31 1009.66 1008.00 1006.58 1005.70 1005.21 1004.34 1003.69 1003.48 1003.56 1003.94
1014.83 1016.10 1015.94 1015.11 1014.81 1014.37 1013.85 1013.16 1012.37 1011.90 1011.57 1011.64 1011.98 1012.15 1012.36 1012.66 1012.75 1012.64 1012.44 1012.24 1011.79 1011.80 1011.98 1012.56 1013.38 1013.06 1012.37 1011.78 1011.20 1010.55 1009.98 1009.75 1009.80 1009.64 1009.66 1008.64 1008.22 1006.70 1006.16 1005.55 1004.77 1004.12 1003.61 1003.31 1003.56
1016.69 1017.16 1016.53 1016.16 1015.57 1014.89 1014.58 1014.14 1013.35 1012.85 1012.61 1012.67 1012.71 1012.67 1012.67 1013.03 1013.36 1013.57 1013.37 1013.16 1012.68 1012.65 1012.88 1013.49 1013.84 1013.70 1013.06 1012.29 1011.44 1010.56 1009.61 1009.30 1009.07 1008.75 1008.49 1008.24 1007.59 1006.52 1006.12 1005.60 1004.90 1004.51 1003.92 1003.48 1003.24
1017.67 1017.62 1017.33 1017.13 1016.38 1015.80 1015.38 1014.63 1014.09 1013.68 1013.44 1013.19 1013.24 1013.25 1013.41 1013.53 1013.71 1013.54 1013.49 1013.34 1013.01 1013.27 1013.71 1014.27 1014.45 1014.90 1013.97 1012.87 1011.96 1010.85 1009.08 1008.44 1007.72 1007.26 1007.33 1007.78 1007.02 1006.94 1006.46 1006.13 1005.38 1005.02 1004.62 1004.01 1003.40
Wind_Speed
12 12 12 12 12 12 12 12 12 12 11 12 12 12 11 11 12 1 5 9 6 7 4 1 1 2 2 2 0 2 4 2 3 3 3 1 3 2 4 7 2 1 4 5 16
12 12 13 13 13 13 12 12 12 12 12 12 12 11 11 10 2 6 11 7 8 9 3 3 4 5 3 1 0 3 3 5 3 2 2 2 3 5 3 2 2 3 7 14 16
13 13 13 13 14 13 12 12 12 12 12 12 12 11 11 7 2 7 2 10 10 6 3 1 1 2 3 5 2 3 3 1 3 3 4 3 3 2 7 3 6 7 12 14 15
13 13 13 14 14 14 13 12 12 12 12 12 11 10 10 2 3 2 7 5 12 7 3 2 3 5 3 4 4 4 2 2 3 3 2 3 4 3 4 5 4 11 16 14 14
14 14 13 13 14 14 13 13 12 12 11 11 10 9 2 2 8 3 8 11 7 6 4 2 3 1 4 4 7 1 2 2 2 5 3 4 2 3 7 5 5 12 13 13 12
14 14 14 14 14 14 14 13 13 12 10 9 8 7 1 2 2 5 7 6 5 5 3 4 3 4 1 2 1 3 3 2 2 2 2 3 1 1 4 7 10 13 12 11 12
14 15 15 15 14 15 15 15 14 11 9 7 4 3 1 12 2 6 4 3 5 5 3 2 2 2 1 7 2 1 4 6 3 2 3 2 6 10 3 7 10 12 10 9 9
15 15 15 14 15 16 16 16 15 11 6 4 2 1 8 4 4 7 1 2 3 3 3 3 2 1 2 2 6 3 4 5 3 3 2 5 10 5 9 10 9 9 9 11 12
15 15 15 15 15 16 16 17 8 1 2 4 1 1 10 8 2 4 4 2 6 3 3 2 3 2 5 4 6 7 3 3 7 7 3 5 8 2 9 11 10 10 10 11 9
15 16 14 13 14 15 18 5 3 5 1 3 2 3 5 2 3 2 2 3 4 2 4 4 5 3 4 5 3 4 5 5 8 3 4 5 19 7 7 9 14 12 10 10 10
16 16 15 13 11 12 8 2 3 2 1 8 5 3 4 6 0 2 3 6 3 6 0 3 5 5 8 6 5 3 4 6 18 8 6 11 15 17 7 8 8 10 11 11 13
17 16 15 13 10 8 1 3 4 3 6 9 4 6 4 2 5 3 5 6 4 4 2 6 6 10 3 3 4 3 5 9 13 7 8 3 13 11 8 9 13 13 11 12 7
20 18 15 12 11 1 3 6 2 4 1 6 5 4 5 8 7 6 8 5 4 5 4 7 9 4 3 2 4 4 5 5 7 7 1 3 7 7 2 3 7 10 8 8 13
20 17 14 12 1 2 4 2 4 5 5 6 2 4 4 6 3 6 5 7 2 10 7 7 5 7 3 5 7 6 6 5 7 1 4 4 8 6 4 8 7 8 9 11 11
19 16 11 4 1 3 2 6 3 4 4 3 1 2 1 6 2 2 3 5 9 6 8 11 3 5 3 7 6 10 4 5 4 3 2 2 2 10 4 8 8 12 12 12 13
19 13 4 2 1 6 5 4 3 7 2 4 4 4 5 1 3 3 3 5 4 4 3 8 1 6 8 5 6 4 4 3 4 3 3 4 3 11 3 7 5 4 12 14 13
15 8 6 2 2 4 3 4 6 4 3 6 2 3 2 2 1 2 6 6 6 3 3 6 7 6 5 5 1 5 6 5 6 6 7 3 1 11 11 9 8 8 10 14 13
18 9 7 4 3 6 3 7 3 1 3 4 4 3 4 1 3 5 4 5 2 5 3 1 10 2 1 8 5 5 8 7 5 4 7 2 5 8 6 9 6 7 6 9 13
2 1 1 4 5 1 7 4 4 3 3 6 5 6 6 5 3 4 4 5 3 6 7 3 9 4 6 5 7 3 4 5 6 3 1 3 9 12 3 8 2 3 6 12 14
1 2 4 3 3 5 7 4 4 5 4 0 1 2 2 5 4 5 3 5 6 2 3 3 5 5 9 3 1 6 7 2 3 2 3 5 6 7 10 11 2 5 8 9 9
3 5 4 2 2 6 4 5 5 4 1 2 1 3 2 2 2 2 2 2 5 7 2 0 3 8 2 3 6 2 1 6 5 5 6 2 8 8 7 11 12 9 7 9 7
3 4 3 2 5 1 1 3 4 4 5 5 5 4 2 2 2 2 2 2 8 3 3 3 3 3 8 4 3 2 3 5 6 4 1 4 9 4 7 10 8 10 3 7 7
3 1 3 4 3 3 6 3 2 8 6 6 5 5 3 3 2 2 1 2 8 4 2 3 2 4 10 6 6 6 3 4 5 3 5 6 8 4 8 10 8 8 8 5 6
3 3 5 5 1 3 3 3 3 5 4 4 3 5 5 6 5 2 2 1 5 3 5 4 2 6 7 5 1 4 3 2 2 2 6 6 8 9 11 10 14 14 9 5 8
5 1 2 2 3 3 1 3 3 5 5 7 4 4 1 1 4 1 2 5 4 3 3 5 3 4 7 6 4 7 8 7 6 7 6 6 8 9 9 9 14 9 8 9 7
4 3 5 1 2 1 4 3 2 5 3 3 2 3 1 4 2 4 1 3 6 1 2 2 4 1 7 9 11 12 12 9 11 12 8 7 10 5 7 8 8 10 8 10 7
2 2 3 4 3 3 0 2 3 2 2 4 2 2 2 1 4 9 8 7 7 5 3 5 5 2 6 4 5 8 11 15 10 8 9 9 8 4 7 10 8 8 8 15 9
Wind_Direction
350 348 346 346 342 337 336 337 336 333 329 327 328 328 327 324 312 215 257 218 146 140 102 206 3 339 73 329 275 102 68 257 232 182 266 161 130 36 39 127 77 5 148 156 132
347 346 344 340 340 337 336 335 333 329 326 324 324 325 325 329 313 249 248 232 146 158 95 59 345 348 7 294 304 108 108 233 218 205 233 176 153 151 121 127 64 68 69 124 139
345 343 341 337 335 336 335 332 330 327 324 323 322 323 320 322 315 248 304 224 167 170 89 163 358 82 19 21 299 165 208 274 291 251 251 186 123 147 142 190 203 175 150 144 152
341 340 338 335 332 332 330 328 327 324 324 321 317 319 315 273 177 35 355 182 153 141 80 4 20 18 37 0 302 323 303 168 298 335 120 178 140 180 203 214 164 166 159 151 167
339 336 335 332 329 327 325 324 322 322 324 320 315 321 311 15 254 11 54 125 116 113 132 137 57 341 20 324 328 227 260 338 329 328 301 130 197 221 231 216 151 140 158 169 175
338 336 335 333 328 325 324 321 319 317 314 316 311 315 20 257 324 20 114 132 126 124 145 167 160 211 312 287 126 332 296 277 267 306 275 213 201 275 263 154 151 157 174 175 179
340 338 335 332 328 325 323 320 315 309 303 305 302 300 79 234 33 337 324 111 151 138 165 212 178 58 60 328 5 351 313 332 253 217 245 149 281 236 172 158 155 170 175 186 190
338 335 333 331 328 325 323 319 310 300 280 267 237 299 248 264 326 303 237 283 160 185 108 189 201 260 140 305 357 348 45 354 280 147 238 127 274 298 166 157 178 176 182 193 201
334 333 333 332 328 326 324 318 309 286 137 158 92 79 269 317 266 256 175 202 144 121 171 187 96 50 38 57 0 8 302 292 313 209 124 178 270 272 174 175 187 192 196 200 206
328 332 330 332 330 331 325 280 111 113 162 220 270 4 281 220 222 188 170 112 61 22 36 68 51 55 46 70 255 318 325 297 262 287 223 207 260 235 187 187 192 197 199 206 206
326 329 330 330 330 335 346 92 26 340 298 192 199 222 300 286 253 220 142 94 74 60 159 9 54 242 250 194 201 236 241 260 289 253 240 222 251 264 185 223 213 199 196 204 217
325 326 327 326 321 318 275 170 198 181 307 230 237 286 293 33 350 325 126 122 111 197 94 16 266 248 188 190 210 221 279 283 282 289 180 148 250 270 202 214 210 204 195 203 174
328 326 326 324 318 153 199 229 49 32 122 295 184 200 215 142 205 242 130 117 135 163 186 175 236 111 161 267 299 246 211 273 242 338 280 4 286 261 281 229 211 221 185 183 180
327 324 323 325 259 185 241 245 303 164 58 281 276 273 138 149 253 193 171 133 149 195 151 242 255 232 234 248 162 299 182 250 275 138 246 136 286 279 297 281 227 212 185 182 176
326 321 318 303 257 184 134 333 120 65 63 324 158 141 143 155 125 208 197 63 179 182 131 242 220 196 195 225 158 237 329 299 308 193 1 307 61 271 343 293 255 218 197 190 186
323 315 300 127 230 248 329 328 60 44 19 7 123 147 121 344 345 112 106 65 156 149 272 245 281 171 217 268 178 261 309 38 51 82 12 266 137 287 250 237 286 232 201 187 189
321 281 185 176 201 328 309 63 42 104 321 326 25 133 125 172 144 114 158 167 169 140 287 331 260 243 178 301 64 96 57 335 349 4 226 275 73 239 275 270 246 227 196 193 187
335 126 213 230 298 347 76 48 87 278 284 328 15 79 99 62 52 7 48 4 337 84 109 185 317 183 87 182 189 189 154 163 234 230 263 295 254 264 228 288 311 223 179 181 190
358 197 160 265 205 152 70 68 219 212 281 328 346 66 4 8 107 97 89 348 301 176 194 187 264 266 195 174 138 239 208 189 111 4 43 266 297 302 295 312 93 263 163 191 195
116 62 2 18 172 63 75 227 238 209 301 107 82 69 114 330 52 56 41 298 320 296 191 249 283 239 279 167 146 173 164 59 13 194 231 294 283 241 309 313 326 235 219 224 191
45 60 301 351 33 49 135 226 278 267 324 220 86 89 88 358 45 81 356 209 357 317 58 169 143 286 22 205 215 66 301 51 120 136 167 205 266 217 258 285 297 274 203 233 197
70 63 302 21 51 32 142 205 304 324 0 30 78 71 121 43 60 84 122 313 333 315 2 351 133 281 242 281 296 171 127 131 127 230 225 160 269 244 277 287 289 287 199 209 180
73 209 316 86 89 345 316 323 32 11 23 17 48 36 23 72 137 133 86 267 4 40 35 325 348 356 337 352 11 50 346 118 113 89 201 144 259 290 320 331 328 300 301 165 176
73 56 338 47 41 120 14 348 353 16 47 56 59 59 52 27 12 141 335 299 335 345 48 109 139 185 203 227 203 292 321 326 129 153 173 229 285 313 309 311 316 317 294 210 178
24 45 171 323 357 30 64 346 4 10 14 35 45 60 116 74 3 346 294 322 297 317 44 99 247 227 245 252 266 248 258 237 221 232 195 243 216 254 273 291 294 291 305 282 171
76 36 358 30 296 55 5 19 32 330 34 2 72 315 43 127 164 271 344 243 239 309 81 14 257 206 273 266 248 252 253 230 234 240 246 252 265 222 284 291 289 301 295 278 250
341 8 101 320 1 83 316 303 360 322 48 64 339 124 148 213 241 229 217 240 235 202 217 184 177 114 262 316 326 296 237 233 230 197 193 201 225 358 307 310 295 323 315 298 282